Total_Precipitation_Accumulation
0.33 0.26 0.23 0.17 0.13 0.11 0.09 0.08 0.08 0.08 0.06 0.03 0.02 0.02 0.02 0.03 0.08 0.11 0.06 0.03 0.14 0.23 0.06 0.00 0.01 0.01 0.00 0.01 0.04 0.02 0.00 0.00 0.00 0.03 0.03 0.01 0.01 0.01 0.00 0.00 0.00 0.00 0.00 0.02 0.02 0.04 0.01 0.00 0.00 0.00 0.00 0.00 0.00 0.00
0.28 0.24 0.20 0.20 0.18 0.14 0.09 0.06 0.02 0.00 0.00 0.00 0.00 0.00 0.00 0.00 0.01 0.05 0.09 0.01 0.05 0.16 0.09 0.01 0.00 0.00 0.00 0.00 0.01 0.02 0.02 0.01 0.04 0.10 0.11 0.07 0.06 0.03 0.02 0.02 0.00 0.00 0.00 0.02 0.01 0.00 0.00 0.00 0.00 0.00 0.00 0.00 0.00 0.00
0.24 0.22 0.20 0.16 0.13 0.10 0.06 0.03 0.01 0.00 0.00 0.00 0.00 0.00 0.00 0.00 0.01 0.04 0.06 0.03 0.09 0.12 0.08 0.02 0.01 0.00 0.00 0.00 0.00 0.04 0.02 0.00 0.00 0.01 0.05 0.08 0.07 0.04 0.03 0.02 0.00 0.00 0.00 0.01 0.00 0.00 0.00 0.00 0.00 0.00 0.00 0.00 0.00 0.00
0.25 0.21 0.16 0.14 0.12 0.08 0.04 0.02 0.00 0.00 0.00 0.00 0.00 0.00 0.00 0.00 0.01 0.03 0.05 0.04 0.15 0.24 0.26 0.04 0.00 0.00 0.00 0.00 0.00 0.00 0.00 0.00 0.00 0.01 0.10 0.12 0.10 0.03 0.03 0.01 0.01 0.00 0.00 0.00 0.00 0.00 0.00 0.00 0.00 0.00 0.00 0.00 0.00 0.00
0.21 0.15 0.13 0.13 0.10 0.05 0.02 0.01 0.00 0.00 0.00 0.00 0.00 0.00 0.00 0.01 0.02 0.03 0.04 0.05 0.08 0.22 0.26 0.07 0.01 0.00 0.00 0.00 0.00 0.00 0.00 0.00 0.01 0.03 0.12 0.13 0.07 0.07 0.03 0.02 0.01 0.00 0.00 0.00 0.00 0.00 0.00 0.00 0.00 0.00 0.00 0.00 0.00 0.00
0.10 0.08 0.08 0.12 0.06 0.01 0.00 0.00 0.00 0.00 0.00 0.00 0.00 0.00 0.01 0.01 0.03 0.13 0.30 0.10 0.05 0.12 0.37 0.34 0.07 0.00 0.01 0.00 0.00 0.00 0.00 0.01 0.03 0.08 0.09 0.05 0.03 0.09 0.10 0.02 0.00 0.00 0.00 0.00 0.00 0.00 0.00 0.00 0.00 0.00 0.00 0.00 0.00 0.00
0.06 0.05 0.08 0.12 0.03 0.00 0.00 0.00 0.00 0.00 0.00 0.00 0.00 0.00 0.01 0.04 0.11 0.25 0.31 0.04 0.02 0.12 0.62 0.74 0.25 0.02 0.00 0.00 0.00 0.00 0.00 0.04 0.13 0.18 0.17 0.07 0.05 0.12 0.14 0.06 0.00 0.00 0.00 0.00 0.00 0.00 0.00 0.00 0.00 0.00 0.00 0.00 0.00 0.00
0.04 0.05 0.11 0.11 0.02 0.00 0.00 0.00 0.00 0.00 0.00 0.00 0.00 0.01 0.06 0.08 0.16 0.17 0.06 0.04 0.15 0.55 1.09 0.89 0.27 0.02 0.01 0.07 0.06 0.00 0.02 0.12 0.27 0.18 0.09 0.09 0.13 0.24 0.30 0.01 0.00 0.00 0.00 0.00 0.00 0.00 0.00 0.00 0.00 0.00 0.00 0.00 0.00 0.00
0.04 0.06 0.13 0.09 0.01 0.00 0.00 0.00 0.00 0.00 0.00 0.01 0.01 0.07 0.13 0.08 0.13 0.14 0.12 0.18 0.31 0.95 1.18 0.47 0.08 0.02 0.03 0.15 0.10 0.13 0.06 0.32 0.33 0.22 0.04 0.08 0.15 0.33 0.08 0.00 0.00 0.00 0.00 0.00 0.00 0.00 0.00 0.00 0.00 0.00 0.00 0.00 0.00 0.00
0.06 0.11 0.18 0.09 0.01 0.00 0.00 0.00 0.01 0.01 0.00 0.01 0.11 0.31 0.26 0.21 0.26 0.39 0.51 0.81 1.38 1.77 1.11 0.29 0.03 0.02 0.04 0.18 0.25 0.33 0.59 0.36 0.37 0.22 0.14 0.27 0.09 0.01 0.00 0.00 0.00 0.00 0.00 0.00 0.00 0.00 0.00 0.00 0.00 0.00 0.00 0.00 0.00 0.00
0.08 0.14 0.22 0.06 0.01 0.00 0.00 0.00 0.00 0.01 0.01 0.06 0.20 0.32 0.27 0.24 0.21 0.36 0.36 0.54 0.72 0.63 0.42 0.14 0.08 0.11 0.07 0.13 0.32 0.40 0.68 0.68 0.42 0.09 0.11 0.22 0.14 0.02 0.00 0.00 0.00 0.00 0.00 0.00 0.00 0.00 0.00 0.00 0.00 0.00 0.00 0.00 0.00 0.00
0.09 0.15 0.15 0.02 0.00 0.00 0.00 0.00 0.01 0.01 0.02 0.08 0.21 0.29 0.49 0.47 0.42 0.39 0.23 0.21 0.32 0.29 0.40 0.34 0.12 0.08 0.16 0.30 0.55 0.65 0.56 0.51 0.46 0.16 0.28 0.13 0.05 0.00 0.00 0.00 0.00 0.00 0.00 0.00 0.00 0.00 0.00 0.00 0.00 0.00 0.00 0.00 0.00 0.00
0.08 0.11 0.04 0.00 0.00 0.00 0.00 0.00 0.01 0.02 0.02 0.11 0.30 0.46 0.50 0.41 0.45 0.43 0.25 0.26 0.32 0.25 0.25 0.16 0.12 0.24 0.42 0.62 0.90 0.68 0.73 0.45 0.28 0.31 0.23 0.10 0.04 0.01 0.00 0.00 0.00 0.00 0.00 0.00 0.00 0.00 0.01 0.00 0.00 0.01 0.00 0.00 0.00 0.00
0.05 0.02 0.00 0.00 0.00 0.01 0.00 0.00 0.01 0.01 0.04 0.20 0.30 0.30 0.26 0.27 0.17 0.12 0.10 0.08 0.10 0.15 0.19 0.24 0.24 0.42 0.62 0.80 0.65 0.77 0.51 0.42 0.46 0.36 0.21 0.12 0.09 0.05 0.03 0.03 0.03 0.05 0.04 0.03 0.04 0.06 0.07 0.08 0.05 0.03 0.02 0.00 0.00 0.00
0.01 0.00 0.00 0.00 0.00 0.00 0.00 0.01 0.00 0.00 0.08 0.20 0.21 0.20 0.14 0.10 0.06 0.08 0.09 0.12 0.18 0.39 0.63 0.71 0.62 0.64 0.73 0.80 0.49 0.46 0.51 0.56 0.42 0.26 0.24 0.26 0.29 0.27 0.27 0.23 0.18 0.18 0.20 0.23 0.19 0.25 0.20 0.18 0.14 0.09 0.06 0.04 0.01 0.00
0.01 0.00 0.00 0.00 0.00 0.01 0.01 0.00 0.00 0.00 0.07 0.16 0.12 0.11 0.05 0.06 0.08 0.10 0.18 0.26 0.30 0.43 0.59 0.76 0.69 0.66 0.58 0.51 0.51 0.43 0.34 0.28 0.31 0.41 0.51 0.48 0.43 0.44 0.47 0.44 0.41 0.42 0.45 0.49 0.42 0.47 0.36 0.39 0.43 0.38 0.25 0.22 0.16 0.09
0.00 0.00 0.00 0.01 0.02 0.02 0.00 0.00 0.00 0.03 0.09 0.12 0.12 0.13 0.14 0.11 0.14 0.20 0.27 0.31 0.37 0.44 0.45 0.55 0.48 0.37 0.40 0.38 0.29 0.25 0.32 0.42 0.46 0.44 0.40 0.42 0.39 0.42 0.44 0.40 0.40 0.43 0.44 0.48 0.53 0.58 0.59 0.59 0.56 0.54 0.47 0.56 0.50 0.47
0.00 0.00 0.00 0.01 0.00 0.00 0.00 0.00 0.00 0.06 0.11 0.12 0.15 0.16 0.16 0.15 0.17 0.15 0.24 0.34 0.45 0.41 0.47 0.44 0.20 0.17 0.22 0.23 0.26 0.37 0.42 0.37 0.32 0.31 0.32 0.37 0.37 0.38 0.36 0.36 0.39 0.38 0.35 0.38 0.41 0.46 0.47 0.43 0.40 0.51 0.49 0.50 0.43 0.49
0.00 0.00 0.01 0.00 0.00 0.00 0.00 0.00 0.00 0.04 0.09 0.13 0.12 0.07 0.05 0.05 0.06 0.10 0.16 0.23 0.38 0.42 0.40 0.39 0.29 0.20 0.20 0.32 0.33 0.33 0.31 0.24 0.26 0.30 0.29 0.32 0.34 0.36 0.38 0.38 0.35 0.34 0.35 0.41 0.39 0.45 0.47 0.42 0.49 0.47 0.45 0.33 0.32 0.41
0.02 0.02 0.01 0.00 0.00 0.00 0.00 0.00 0.00 0.00 0.03 0.05 0.03 0.01 0.00 0.00 0.01 0.05 0.11 0.20 0.32 0.33 0.28 0.31 0.41 0.42 0.43 0.50 0.42 0.36 0.33 0.27 0.23 0.22 0.22 0.19 0.20 0.18 0.19 0.20 0.25 0.31 0.29 0.27 0.28 0.30 0.28 0.23 0.28 0.35 0.36 0.33 0.25 0.32
0.00 0.00 0.00 0.00 0.00 0.00 0.00 0.00 0.00 0.01 0.01 0.01 0.01 0.00 0.00 0.00 0.02 0.05 0.07 0.09 0.13 0.21 0.37 0.46 0.51 0.58 0.53 0.46 0.39 0.32 0.33 0.27 0.22 0.16 0.16 0.16 0.15 0.09 0.08 0.07 0.07 0.06 0.07 0.08 0.07 0.10 0.08 0.09 0.12 0.11 0.10 0.10 0.12 0.12
0.00 0.00 0.00 0.00 0.00 0.00 0.00 0.01 0.00 0.00 0.00 0.00 0.00 0.00 0.00 0.00 0.06 0.12 0.10 0.05 0.19 0.32 0.42 0.51 0.53 0.50 0.40 0.33 0.35 0.29 0.31 0.22 0.17 0.14 0.11 0.06 0.02 0.01 0.01 0.00 0.00 0.00 0.00 0.00 0.00 0.00 0.00 0.00 0.00 0.00 0.00 0.00 0.00 0.00
0.00 0.00 0.00 0.00 0.00 0.00 0.00 0.00 0.00 0.00 0.00 0.00 0.00 0.00 0.00 0.00 0.03 0.06 0.11 0.13 0.20 0.31 0.40 0.37 0.35 0.34 0.30 0.29 0.25 0.20 0.16 0.12 0.08 0.05 0.02 0.00 0.00 0.00 0.00 0.00 0.00 0.00 0.00 0.00 0.00 0.00 0.00 0.00 0.00 0.00 0.00 0.00 0.00 0.00
0.00 0.00 0.00 0.00 0.00 0.00 0.00 0.00 0.00 0.00 0.00 0.00 0.00 0.00 0.00 0.00 0.00 0.02 0.07 0.13 0.20 0.24 0.23 0.23 0.19 0.19 0.18 0.16 0.12 0.11 0.08 0.04 0.02 0.01 0.00 0.00 0.00 0.01 0.00 0.00 0.00 0.00 0.00 0.00 0.00 0.00 0.00 0.00 0.00 0.00 0.00 0.00 0.00 0.00
0.00 0.00 0.00 0.00 0.00 0.00 0.00 0.00 0.00 0.00 0.00 0.00 0.00 0.00 0.00 0.00 0.00 0.01 0.05 0.10 0.13 0.14 0.13 0.10 0.10 0.10 0.11 0.11 0.10 0.07 0.04 0.02 0.01 0.00 0.01 0.00 0.00 0.00 0.00 0.00 0.01 0.01 0.00 0.00 0.00 0.00 0.00 0.00 0.00 0.00 0.00 0.00 0.00 0.00
0.00 0.01 0.00 0.00 0.00 0.00 0.00 0.00 0.00 0.00 0.00 0.00 0.01 0.01 0.00 0.00 0.00 0.01 0.03 0.07 0.09 0.09 0.07 0.06 0.05 0.05 0.05 0.05 0.05 0.03 0.01 0.00 0.00 0.00 0.01 0.00 0.00 0.00 0.00 0.00 0.00 0.01 0.01 0.01 0.01 0.01 0.00 0.00 0.00 0.00 0.00 0.00 0.01 0.01
0.00 0.01 0.01 0.01 0.01 0.00 0.00 0.00 0.00 0.00 0.00 0.00 0.01 0.00 0.00 0.00 0.01 0.02 0.05 0.05 0.06 0.04 0.03 0.03 0.03 0.03 0.03 0.02 0.01 0.01 0.00 0.00 0.00 0.00 0.01 0.00 0.00 0.01 0.00 0.01 0.01 0.03 0.03 0.01 0.02 0.02 0.01 0.01 0.01 0.01 0.01 0.01 0.01 0.01
0.00 0.01 0.00 0.01 0.00 0.00 0.00 0.00 0.00 0.01 0.01 0.02 0.01 0.00 0.00 0.01 0.02 0.05 0.06 0.06 0.02 0.00 0.01 0.01 0.01 0.01 0.00 0.01 0.01 0.01 0.00 0.00 0.00 0.00 0.00 0.00 0.00 0.00 0.01 0.01 0.02 0.03 0.01 0.01 0.03 0.02 0.02 0.02 0.02 0.01 0.01 0.01 0.00 0.00
0.01 0.01 0.01 0.01 0.01 0.00 0.01 0.01 0.01 0.02 0.03 0.01 0.00 0.01 0.02 0.03 0.05 0.06 0.07 0.05 0.01 0.00 0.00 0.00 0.00 0.00 0.01 0.00 0.00 0.00 0.00 0.00 0.00 0.00 0.00 0.00 0.00 0.00 0.00 0.00 0.00 0.01 0.01 0.01 0.01 0.02 0.03 0.06 0.05 0.03 0.01 0.00 0.00 0.00
0.01 0.00 0.00 0.00 0.00 0.01 0.02 0.02 0.02 0.04 0.03 0.01 0.01 0.01 0.02 0.05 0.07 0.07 0.04 0.02 0.00 0.00 0.00 0.00 0.00 0.01 0.01 0.00 0.00 0.01 0.01 0.01 0.00 0.00 0.00 0.01 0.01 0.01 0.01 0.01 0.01 0.01 0.01 0.01 0.00 0.00 0.00 0.01 0.00 0.00 0.00 0.00 0.00 0.00
0.00 0.00 0.00 0.00 0.01 0.02 0.03 0.03 0.03 0.03 0.02 0.02 0.01 0.01 0.02 0.03 0.07 0.07 0.02 0.00 0.00 0.00 0.00 0.00 0.00 0.00 0.00 0.00 0.00 0.00 0.01 0.01 0.01 0.02 0.02 0.02 0.02 0.01 0.01 0.01 0.01 0.01 0.01 0.01 0.01 0.01 0.01 0.00 0.00 0.00 0.00 0.00 0.00 0.01
0.00 0.00 0.00 0.00 0.01 0.02 0.02 0.03 0.03 0.03 0.03 0.03 0.04 0.04 0.05 0.04 0.04 0.05 0.06 0.03 0.01 0.00 0.00 0.00 0.00 0.00 0.00 0.00 0.00 0.01 0.01 0.00 0.00 0.03 0.05 0.02 0.02 0.02 0.02 0.01 0.01 0.01 0.01 0.01 0.01 0.01 0.01 0.01 0.01 0.01 0.01 0.01 0.01 0.01
0.00 0.00 0.00 0.00 0.01 0.01 0.01 0.01 0.02 0.02 0.03 0.04 0.05 0.05 0.06 0.05 0.04 0.05 0.06 0.05 0.03 0.01 0.00 0.00 0.00 0.00 0.00 0.00 0.00 0.00 0.00 0.00 0.01 0.02 0.03 0.02 0.01 0.01 0.01 0.00 0.00 0.01 0.01 0.00 0.00 0.01 0.01 0.01 0.01 0.01 0.01 0.01 0.01 0.01